Weather History for McAlester, OK

Change the Weather History Date:

Thursday, June 20, 2013

  Actual Average Record
Temperature  
Mean Temperature 82 °F -  
Max Temperature 91 °F 89 °F 105 °F (1953)
Min Temperature 73 °F 69 °F 49 °F (1976)
Cooling Degree Days 17    
Growing Degree Days 32 (Base 50)    
Moisture  
Dew Point 70 °F    
Average Humidity 68    
Maximum Humidity 85    
Minimum Humidity 52    
Precipitation  
Precipitation 0.00 in - - ()
Sea Level Pressure  
Sea Level Pressure 29.98 in    
Wind  
Wind Speed 6 mph (SSE)    
Max Wind Speed 12 mph    
Max Gust Speed 21 mph    
Visibility 10 miles    
Events      
Averages and records for this station are not official NWS values.
T = Trace of Precipitation, MM = Missing Value Source: NWS Daily Summary

Daily Weather History Graph

Daily Weather History Graph

Search for Another Location

Airport:

Trip Planner

Search our weather history database for the weather conditions in past years. The results will help you decide how hot, cold, wet, or windy it might be!

Date:

Astronomy

Jun. 20, 2013 Rise Set
Actual Time 6:09 AM CDT 8:39 PM CDT
Civil Twilight 5:40 AM CDT 9:09 PM CDT
Nautical Twilight 5:03 AM CDT 9:46 PM CDT
Astronomical Twilight 4:22 AM CDT 10:26 PM CDT
Moon 5:47 PM CDT (6/20) 3:31 AM CDT (6/20)
Length of Visible Light 15h 29m
Length of Day
14h 30m
Waxing Gibbous, 89% of the Moon is Illuminated
Jun 20
Waxing Gibbous
Jun 23
Full
Jun 29
Last Quarter
Jul 8
New
Jul 15
First Quarter

Hourly Weather History & Observations

Time (CDT) Temp. Heat Index Dew Point Humidity Pressure Visibility Wind Dir Wind Speed Gust Speed Precip Events Conditions
12:53 AM 73.9 °F - 68.0 °F 82% 29.97 in 10.0 mi ESE 4.6 mph - N/A   Scattered Clouds
1:53 AM 75.0 °F - 66.9 °F 76% 29.96 in 10.0 mi SE 5.8 mph - N/A   Mostly Cloudy
2:53 AM 75.0 °F - 66.9 °F 76% 29.96 in 10.0 mi SSE 4.6 mph - N/A   Scattered Clouds
3:53 AM 75.0 °F - 68.0 °F 79% 29.95 in 10.0 mi SE 5.8 mph - N/A   Scattered Clouds
4:53 AM 75.0 °F - 68.0 °F 79% 29.95 in 10.0 mi SE 3.5 mph - N/A   Scattered Clouds
5:53 AM 75.0 °F - 69.1 °F 82% 29.97 in 10.0 mi SSE 5.8 mph - N/A   Mostly Cloudy
6:53 AM 73.9 °F - 69.1 °F 85% 29.98 in 10.0 mi SE 5.8 mph - N/A   Mostly Cloudy
7:53 AM 77.0 °F - 70.0 °F 79% 30.00 in 10.0 mi South 4.6 mph - N/A   Clear
8:53 AM 81.0 °F 85.2 °F 72.0 °F 74% 30.01 in 10.0 mi South 9.2 mph - N/A   Clear
9:53 AM 82.9 °F 88.0 °F 72.0 °F 69% 30.02 in 10.0 mi South 11.5 mph - N/A   Clear
10:53 AM 84.9 °F 90.7 °F 72.0 °F 65% 30.02 in 10.0 mi SSW 10.4 mph - N/A   Scattered Clouds
11:53 AM 87.1 °F 93.6 °F 72.0 °F 61% 30.02 in 10.0 mi Variable 6.9 mph - N/A   Clear
12:53 PM 88.0 °F 95.6 °F 73.0 °F 61% 30.01 in 10.0 mi SSE 6.9 mph - N/A   Clear
1:53 PM 90.0 °F 96.9 °F 72.0 °F 55% 30.00 in 10.0 mi South 8.1 mph - N/A   Clear
2:53 PM 91.0 °F 97.6 °F 71.1 °F 52% 29.98 in 10.0 mi South 11.5 mph 17.3 mph N/A   Clear
3:53 PM 90.0 °F 96.9 °F 72.0 °F 55% 29.98 in 10.0 mi SSE 8.1 mph 17.3 mph N/A   Clear
4:53 PM 90.0 °F 96.9 °F 72.0 °F 55% 29.96 in 10.0 mi SSE 10.4 mph 20.7 mph N/A   Partly Cloudy
5:53 PM 89.1 °F 95.0 °F 71.1 °F 55% 29.95 in 10.0 mi South 10.4 mph 18.4 mph N/A   Partly Cloudy
6:53 PM 88.0 °F 93.8 °F 71.1 °F 57% 29.94 in 10.0 mi South 10.4 mph 17.3 mph N/A   Partly Cloudy
7:53 PM 86.0 °F 91.5 °F 71.1 °F 61% 29.94 in 10.0 mi SSE 6.9 mph 16.1 mph N/A   Clear
8:53 PM 82.9 °F 87.0 °F 70.0 °F 65% 29.95 in 10.0 mi SE 4.6 mph - N/A   Clear
9:53 PM 82.0 °F 85.9 °F 70.0 °F 67% 29.96 in 10.0 mi Variable 4.6 mph - N/A   Clear
10:53 PM 81.0 °F 84.4 °F 70.0 °F 69% 29.99 in 10.0 mi SE 5.8 mph - N/A   Clear
11:53 PM 81.0 °F 84.4 °F 70.0 °F 69% 30.00 in 10.0 mi SE 5.8 mph - N/A   Clear